sat.trackr.live / text

‹ back to catalog

STARLINK-32829

NORAD 63049 · 2025-034W

PAYLOAD ACTIVE UNKNOWN

§ Identity

Operator
Country
US
Launch date
2025-02-18
Launch site
AFETR
Launch vehicle
Mass (kg)
RCS (m²)

Purposes: comms

External: N2YO · Heavens-Above · Gunter

§ Orbital elements

Epoch: 2026-09-21T19:54:24.776352Z

Period
93.85 min
Inclination
53.1588°
Eccentricity
0.0001113
Mean motion
15.34405483 rev/d
Perigee alt
461.9 km
Apogee alt
463.4 km
Semi-major
6,840.8 km
B*
4.1491e-4
RAAN
75.8211°
Arg perigee
106.8562°
Mean anomaly
253.2562°
Rev number
8,899

§ Raw data

STARLINK-328291 63049U 25034W   26264.82945343  .00013670  00000+0  41491-3 0  99922 63049  53.1588  75.8211 0001113 106.8562 253.2562 15.34405483 88998

JSON: /api/v1/satellites/63049 · /tle

For live sub-satellite position, see the globe view (requires WebGL).

§ Visibility from observer

Set your observer location to see the next 7 days of passes ≥ 10°. The values pass through the URL so the page stays shareable.

No JS? Fill the form by hand. The geolocation button needs JavaScript.